Weather in Meleuz

Russia / Republic of Bashkortostan     52°57′32″N   55°55′41″E
temp.,
°C
wind,
m/s
gust,
m/s
humid.,
%
clouds,
%
prec.,
mm/h
press.,
hPa
HPBL,
m
18 may, tue
tue1823:00+20sse33466 0.2 101827
02:00+16ese11605 0.0 101911
05:00+15sse116881 0.0 101811
08:00+20sse11605 0.0 1018116
11:00+26wnw12413 0.0 1017601
14:00+29nnw33310 0.0 10161746
17:00+29n44295 0.0 10152716
20:00+24nne36586 0.0 1015100
19 may, wed
wed1923:00+19n410688 0.0 1016241
02:00+16nne33751 0.0 101643
05:00+14e39790 0.0 1017192
08:00+17e610690 0.0 1018636
11:00+21e67520 0.0 10191140
14:00+23ese57400 0.0 10191722
17:00+24ese67365 0.0 10181934
20:00+20ese38560 0.0 1019168
20 may, thu
thu2023:00+15ese22620 0.0 102123
02:00+12ese38685 0.0 1022127
05:00+11ese23660 0.0 102331
08:00+15ese410575 0.0 1024387
11:00+20se6843100 0.0 10231266
14:00+22se57361 0.0 10221777
17:00+23sse57360 0.0 10211941
20:00+19sse23555 0.0 102134
21 may, fri
fri2123:00+15ese22640 0.0 102211
02:00+13e22684 0.0 102219
05:00+11ese33640 0.0 102327
08:00+16ese48580 0.0 1023275
11:00+21sse57450 0.0 10231121
14:00+23sse56380 0.0 10231956
17:00+24sse45370 0.0 10232038
20:00+20se35593 0.0 102384
22 may, sat
sat2223:00+16se22581 0.0 102412
02:00+14ese22610 0.0 102411
05:00+12ese22645 0.0 102510
08:00+17se23564 0.0 1025170
11:00+24s34383 0.0 1025835
14:00+26ssw43325 0.0 10252303
17:00+26ssw333228 0.0 10242271
20:00+22sse33505 0.0 102433